Time,TemperatureF,DewpointF,PressureIn,WindDirection,WindDirectionDegrees,WindSpeedMPH,WindSpeedGustMPH,Humidity,HourlyPrecipIn,Conditions,Clouds,dailyrainin,SoftwareType,DateUTC
2013-05-30 00:00:00,61.5,58.2,30.22,South,169,0.0,0.0,89,0.00,,,0.00,Wunderground v.1.15,2013-05-30 04:00:00,
2013-05-30 00:02:00,61.4,58.1,30.22,South,169,0.0,0.0,89,0.00,,,0.00,Wunderground v.1.15,2013-05-30 04:02:00,
2013-05-30 00:04:00,61.3,58.0,30.22,South,169,0.0,0.0,89,0.00,,,0.00,Wunderground v.1.15,2013-05-30 04:04:00,
2013-05-30 00:06:00,61.3,58.3,30.22,South,169,0.0,0.0,90,0.00,,,0.00,Wunderground v.1.15,2013-05-30 04:06:00,
2013-05-30 00:12:00,61.3,58.7,30.22,South,169,0.0,0.0,91,0.00,,,0.00,Wunderground v.1.15,2013-05-30 04:12:00,
2013-05-30 00:14:00,61.2,58.6,30.22,South,169,0.0,0.0,91,0.00,,,0.00,Wunderground v.1.15,2013-05-30 04:14:00,
2013-05-30 00:20:00,61.0,58.4,30.22,South,169,0.0,0.0,91,0.00,,,0.00,Wunderground v.1.15,2013-05-30 04:20:00,
2013-05-30 00:26:00,60.8,58.2,30.22,South,169,0.0,0.0,91,0.00,,,0.00,Wunderground v.1.15,2013-05-30 04:26:00,
2013-05-30 00:30:00,60.6,58.0,30.22,South,169,0.0,0.0,91,0.00,,,0.00,Wunderground v.1.15,2013-05-30 04:30:00,
2013-05-30 00:36:00,60.4,57.8,30.21,South,169,0.0,0.0,91,0.00,,,0.00,Wunderground v.1.15,2013-05-30 04:36:00,
2013-05-30 00:42:00,60.3,58.0,30.21,South,169,0.0,0.0,92,0.00,,,0.00,Wunderground v.1.15,2013-05-30 04:42:00,
2013-05-30 00:48:00,60.2,57.9,30.21,South,169,0.0,0.0,92,0.00,,,0.00,Wunderground v.1.15,2013-05-30 04:48:00,
2013-05-30 00:54:00,60.1,57.8,30.21,South,169,0.0,0.0,92,0.00,,,0.00,Wunderground v.1.15,2013-05-30 04:54:00,
2013-05-30 01:00:00,60.0,57.7,30.21,South,169,0.0,0.0,92,0.00,,,0.00,Wunderground v.1.15,2013-05-30 05:00:00,
2013-05-30 01:06:00,59.9,57.9,30.21,South,169,0.0,0.0,93,0.00,,,0.00,Wunderground v.1.15,2013-05-30 05:06:00,
2013-05-30 01:12:00,59.7,57.4,30.21,South,169,0.0,0.0,92,0.00,,,0.00,Wunderground v.1.15,2013-05-30 05:12:00,
2013-05-30 01:18:00,59.5,57.2,30.21,South,169,0.0,0.0,92,0.00,,,0.00,Wunderground v.1.15,2013-05-30 05:18:00,
2013-05-30 01:24:00,59.4,57.4,30.21,South,169,0.0,0.0,93,0.00,,,0.00,Wunderground v.1.15,2013-05-30 05:24:00,
2013-05-30 01:30:00,59.3,57.3,30.22,South,169,0.0,0.0,93,0.00,,,0.00,Wunderground v.1.15,2013-05-30 05:30:00,
2013-05-30 01:36:00,59.1,57.1,30.22,South,169,0.0,0.0,93,0.00,,,0.00,Wunderground v.1.15,2013-05-30 05:36:00,
2013-05-30 01:42:00,58.9,56.9,30.21,South,169,0.0,0.0,93,0.00,,,0.00,Wunderground v.1.15,2013-05-30 05:42:00,
2013-05-30 01:48:00,58.9,56.9,30.21,South,169,0.0,0.0,93,0.00,,,0.00,Wunderground v.1.15,2013-05-30 05:48:00,
2013-05-30 01:54:00,58.7,57.0,30.21,South,169,0.0,0.0,94,0.00,,,0.00,Wunderground v.1.15,2013-05-30 05:54:00,
2013-05-30 02:00:00,58.7,57.0,30.20,South,169,0.0,0.0,94,0.00,,,0.00,Wunderground v.1.15,2013-05-30 06:00:00,
2013-05-30 02:06:00,58.6,56.9,30.20,South,169,0.0,0.0,94,0.00,,,0.00,Wunderground v.1.15,2013-05-30 06:06:00,
2013-05-30 02:12:00,58.5,56.8,30.20,South,169,0.0,0.0,94,0.00,,,0.00,Wunderground v.1.15,2013-05-30 06:12:00,
2013-05-30 02:18:00,58.4,56.7,30.20,South,169,0.0,0.0,94,0.00,,,0.00,Wunderground v.1.15,2013-05-30 06:18:00,
2013-05-30 02:24:00,58.3,56.6,30.20,South,169,0.0,0.0,94,0.00,,,0.00,Wunderground v.1.15,2013-05-30 06:24:00,
2013-05-30 02:30:00,58.0,56.3,30.20,South,169,0.0,0.0,94,0.00,,,0.00,Wunderground v.1.15,2013-05-30 06:30:00,
2013-05-30 02:36:00,57.8,56.1,30.19,South,169,0.0,0.0,94,0.00,,,0.00,Wunderground v.1.15,2013-05-30 06:36:00,
2013-05-30 02:42:00,57.8,56.1,30.20,South,169,0.0,0.0,94,0.00,,,0.00,Wunderground v.1.15,2013-05-30 06:42:00,
2013-05-30 02:48:00,57.8,56.1,30.20,South,169,0.0,0.0,94,0.00,,,0.00,Wunderground v.1.15,2013-05-30 06:48:00,
2013-05-30 02:54:00,57.7,56.0,30.20,South,169,0.0,0.0,94,0.00,,,0.00,Wunderground v.1.15,2013-05-30 06:54:00,
2013-05-30 03:00:00,57.3,55.6,30.20,South,169,0.0,0.0,94,0.00,,,0.00,Wunderground v.1.15,2013-05-30 07:00:00,
2013-05-30 03:06:00,57.0,55.3,30.20,South,169,0.0,0.0,94,0.00,,,0.00,Wunderground v.1.15,2013-05-30 07:06:00,
2013-05-30 03:12:00,56.9,55.5,30.20,South,169,0.0,0.0,95,0.00,,,0.00,Wunderground v.1.15,2013-05-30 07:12:00,
2013-05-30 03:18:00,56.9,55.5,30.20,South,169,0.0,0.0,95,0.00,,,0.00,Wunderground v.1.15,2013-05-30 07:18:00,
2013-05-30 03:24:00,56.9,55.5,30.20,South,169,0.0,0.0,95,0.00,,,0.00,Wunderground v.1.15,2013-05-30 07:24:00,
2013-05-30 03:30:00,56.8,55.4,30.20,South,169,0.0,0.0,95,0.00,,,0.00,Wunderground v.1.15,2013-05-30 07:30:00,
2013-05-30 03:36:00,56.9,55.5,30.21,South,169,0.0,0.0,95,0.00,,,0.00,Wunderground v.1.15,2013-05-30 07:36:00,
2013-05-30 03:42:00,57.1,56.0,30.21,South,169,0.0,0.0,96,0.00,,,0.00,Wunderground v.1.15,2013-05-30 07:42:00,
2013-05-30 03:48:00,57.1,55.7,30.21,South,169,0.0,0.0,95,0.00,,,0.00,Wunderground v.1.15,2013-05-30 07:48:00,
2013-05-30 03:54:00,57.0,55.6,30.21,South,169,0.0,0.0,95,0.00,,,0.00,Wunderground v.1.15,2013-05-30 07:54:00,
2013-05-30 04:00:00,57.1,55.7,30.21,South,169,0.0,0.0,95,0.00,,,0.00,Wunderground v.1.15,2013-05-30 08:00:00,
2013-05-30 04:06:00,57.0,55.6,30.21,South,169,0.0,0.0,95,0.00,,,0.00,Wunderground v.1.15,2013-05-30 08:06:00,
2013-05-30 04:12:00,56.9,55.5,30.22,South,169,0.0,0.0,95,0.00,,,0.00,Wunderground v.1.15,2013-05-30 08:12:00,
2013-05-30 04:18:00,57.0,55.6,30.22,South,169,0.0,0.0,95,0.00,,,0.00,Wunderground v.1.15,2013-05-30 08:18:00,
2013-05-30 04:24:00,57.0,55.6,30.22,South,169,0.0,0.0,95,0.00,,,0.00,Wunderground v.1.15,2013-05-30 08:24:00,
2013-05-30 04:30:00,57.1,55.7,30.22,South,169,0.0,0.0,95,0.00,,,0.00,Wunderground v.1.15,2013-05-30 08:30:00,
2013-05-30 04:36:00,56.9,55.5,30.22,South,169,0.0,0.0,95,0.00,,,0.00,Wunderground v.1.15,2013-05-30 08:36:00,
2013-05-30 04:42:00,56.9,55.5,30.22,South,169,0.0,0.0,95,0.00,,,0.00,Wunderground v.1.15,2013-05-30 08:42:00,
2013-05-30 04:48:00,56.9,55.5,30.22,South,169,0.0,0.0,95,0.00,,,0.00,Wunderground v.1.15,2013-05-30 08:48:00,
2013-05-30 04:54:00,57.2,55.8,30.22,South,169,0.0,1.0,95,0.00,,,0.00,Wunderground v.1.15,2013-05-30 08:54:00,
2013-05-30 05:00:00,57.5,56.1,30.23,South,169,0.0,0.0,95,0.00,,,0.00,Wunderground v.1.15,2013-05-30 09:00:00,
2013-05-30 05:06:00,57.5,55.8,30.23,South,169,0.0,0.0,94,0.00,,,0.00,Wunderground v.1.15,2013-05-30 09:06:00,
2013-05-30 05:12:00,57.1,55.1,30.23,South,169,0.0,0.0,93,0.00,,,0.00,Wunderground v.1.15,2013-05-30 09:12:00,
2013-05-30 05:18:00,57.0,55.3,30.24,South,169,0.0,0.0,94,0.00,,,0.00,Wunderground v.1.15,2013-05-30 09:18:00,
2013-05-30 05:24:00,56.8,55.1,30.24,South,169,0.0,0.0,94,0.00,,,0.00,Wunderground v.1.15,2013-05-30 09:24:00,
2013-05-30 05:30:00,56.8,55.1,30.24,South,169,0.0,0.0,94,0.00,,,0.00,Wunderground v.1.15,2013-05-30 09:30:00,
2013-05-30 05:36:00,57.0,55.6,30.24,South,169,0.0,0.0,95,0.00,,,0.00,Wunderground v.1.15,2013-05-30 09:36:00,
2013-05-30 05:42:00,56.9,55.2,30.24,South,169,0.0,2.0,94,0.00,,,0.00,Wunderground v.1.15,2013-05-30 09:42:00,
2013-05-30 05:48:00,56.9,55.2,30.24,South,169,0.0,2.0,94,0.00,,,0.00,Wunderground v.1.15,2013-05-30 09:48:00,
2013-05-30 05:54:00,56.8,55.1,30.24,South,169,0.0,0.0,94,0.00,,,0.00,Wunderground v.1.15,2013-05-30 09:54:00,
2013-05-30 06:00:00,56.7,55.0,30.25,South,169,0.0,0.0,94,0.00,,,0.00,Wunderground v.1.15,2013-05-30 10:00:00,
2013-05-30 06:06:00,56.7,55.3,30.25,South,169,0.0,0.0,95,0.00,,,0.00,Wunderground v.1.15,2013-05-30 10:06:00,
2013-05-30 06:12:00,56.7,55.3,30.25,South,169,0.0,0.0,95,0.00,,,0.00,Wunderground v.1.15,2013-05-30 10:12:00,
2013-05-30 06:18:00,56.7,55.3,30.25,South,169,0.0,0.0,95,0.00,,,0.00,Wunderground v.1.15,2013-05-30 10:18:00,
2013-05-30 06:24:00,56.8,55.4,30.25,South,169,0.0,0.0,95,0.00,,,0.00,Wunderground v.1.15,2013-05-30 10:24:00,
2013-05-30 06:30:00,56.8,55.4,30.25,South,169,0.0,0.0,95,0.00,,,0.00,Wunderground v.1.15,2013-05-30 10:30:00,
2013-05-30 06:36:00,56.9,55.5,30.26,South,169,0.0,0.0,95,0.00,,,0.00,Wunderground v.1.15,2013-05-30 10:36:00,
2013-05-30 06:42:00,57.0,55.6,30.25,South,169,0.0,0.0,95,0.00,,,0.00,Wunderground v.1.15,2013-05-30 10:42:00,
2013-05-30 06:48:00,57.1,55.7,30.26,South,169,0.0,0.0,95,0.00,,,0.00,Wunderground v.1.15,2013-05-30 10:48:00,
2013-05-30 06:54:00,57.0,55.3,30.25,South,169,0.0,0.0,94,0.00,,,0.00,Wunderground v.1.15,2013-05-30 10:54:00,
2013-05-30 07:00:00,56.9,55.2,30.26,South,169,0.0,0.0,94,0.00,,,0.00,Wunderground v.1.15,2013-05-30 11:00:00,
2013-05-30 07:06:00,56.9,55.2,30.26,South,169,0.0,0.0,94,0.00,,,0.00,Wunderground v.1.15,2013-05-30 11:06:00,
2013-05-30 07:12:00,57.2,55.8,30.26,South,169,0.0,0.0,95,0.00,,,0.00,Wunderground v.1.15,2013-05-30 11:12:00,
2013-05-30 07:18:00,57.6,56.2,30.26,South,169,0.0,0.0,95,0.00,,,0.00,Wunderground v.1.15,2013-05-30 11:18:00,
2013-05-30 07:24:00,58.0,56.6,30.26,South,169,0.0,0.0,95,0.00,,,0.00,Wunderground v.1.15,2013-05-30 11:24:00,
2013-05-30 07:30:00,58.9,57.5,30.26,South,169,0.0,0.0,95,0.00,,,0.00,Wunderground v.1.15,2013-05-30 11:30:00,
2013-05-30 07:36:00,59.8,58.4,30.26,South,169,0.0,0.0,95,0.00,,,0.00,Wunderground v.1.15,2013-05-30 11:36:00,
2013-05-30 07:42:00,60.4,58.4,30.26,South,169,0.0,0.0,93,0.00,,,0.00,Wunderground v.1.15,2013-05-30 11:42:00,
2013-05-30 07:48:00,61.3,58.7,30.26,South,169,0.0,0.0,91,0.00,,,0.00,Wunderground v.1.15,2013-05-30 11:48:00,
2013-05-30 07:54:00,61.8,58.8,30.27,South,169,0.0,0.0,90,0.00,,,0.00,Wunderground v.1.15,2013-05-30 11:54:00,
2013-05-30 08:00:00,62.7,59.4,30.26,South,169,0.0,0.0,89,0.00,,,0.00,Wunderground v.1.15,2013-05-30 12:00:00,
2013-05-30 08:06:00,63.6,59.7,30.27,South,169,0.0,0.0,87,0.00,,,0.00,Wunderground v.1.15,2013-05-30 12:06:00,
2013-05-30 08:12:00,64.4,60.4,30.27,South,169,0.0,0.0,87,0.00,,,0.00,Wunderground v.1.15,2013-05-30 12:12:00,
2013-05-30 08:18:00,65.2,60.6,30.27,South,169,0.0,0.0,85,0.00,,,0.00,Wunderground v.1.15,2013-05-30 12:18:00,
2013-05-30 08:24:00,65.8,61.2,30.27,South,169,0.0,0.0,85,0.00,,,0.00,Wunderground v.1.15,2013-05-30 12:24:00,
2013-05-30 08:30:00,66.6,61.3,30.27,South,169,0.0,0.0,83,0.00,,,0.00,Wunderground v.1.15,2013-05-30 12:30:00,
2013-05-30 08:36:00,67.5,61.8,30.27,South,169,0.0,0.0,82,0.00,,,0.00,Wunderground v.1.15,2013-05-30 12:36:00,
2013-05-30 08:42:00,68.3,62.2,30.27,South,169,0.0,0.0,81,0.00,,,0.00,Wunderground v.1.15,2013-05-30 12:42:00,
2013-05-30 08:48:00,68.8,62.0,30.27,South,169,0.0,2.0,79,0.00,,,0.00,Wunderground v.1.15,2013-05-30 12:48:00,
2013-05-30 08:54:00,68.8,62.4,30.27,South,169,0.0,2.0,80,0.00,,,0.00,Wunderground v.1.15,2013-05-30 12:54:00,
2013-05-30 09:00:00,68.8,61.7,30.27,SSW,202,0.0,2.0,78,0.00,,,0.00,Wunderground v.1.15,2013-05-30 13:00:00,
2013-05-30 09:06:00,68.8,61.7,30.28,SSW,202,0.0,2.0,78,0.00,,,0.00,Wunderground v.1.15,2013-05-30 13:06:00,
2013-05-30 09:12:00,69.5,62.0,30.28,SSW,208,0.0,4.0,77,0.00,,,0.00,Wunderground v.1.15,2013-05-30 13:12:00,
2013-05-30 09:18:00,70.0,62.1,30.28,WSW,249,1.0,4.0,76,0.00,,,0.00,Wunderground v.1.15,2013-05-30 13:18:00,
2013-05-30 09:24:00,69.8,61.9,30.28,WNW,296,2.0,5.0,76,0.00,,,0.00,Wunderground v.1.15,2013-05-30 13:24:00,
2013-05-30 09:30:00,69.5,61.6,30.28,WNW,298,3.0,3.0,76,0.00,,,0.00,Wunderground v.1.15,2013-05-30 13:30:00,
2013-05-30 09:36:00,69.8,62.3,30.28,WNW,298,1.0,3.0,77,0.00,,,0.00,Wunderground v.1.15,2013-05-30 13:36:00,
2013-05-30 09:42:00,69.9,61.6,30.28,WNW,298,1.0,1.0,75,0.00,,,0.00,Wunderground v.1.15,2013-05-30 13:42:00,
2013-05-30 09:48:00,69.9,61.6,30.28,WNW,296,1.0,2.0,75,0.00,,,0.00,Wunderground v.1.15,2013-05-30 13:48:00,
2013-05-30 09:54:00,69.9,61.6,30.28,WNW,296,1.0,5.0,75,0.00,,,0.00,Wunderground v.1.15,2013-05-30 13:54:00,
2013-05-30 10:00:00,69.9,61.2,30.28,WNW,296,2.0,3.0,74,0.00,,,0.00,Wunderground v.1.15,2013-05-30 14:00:00,
2013-05-30 10:06:00,69.9,61.6,30.28,WNW,296,2.0,3.0,75,0.00,,,0.00,Wunderground v.1.15,2013-05-30 14:06:00,
2013-05-30 10:12:00,70.1,61.4,30.28,WNW,297,1.0,2.0,74,0.00,,,0.00,Wunderground v.1.15,2013-05-30 14:12:00,
2013-05-30 10:18:00,69.9,61.6,30.28,WNW,298,2.0,5.0,75,0.00,,,0.00,Wunderground v.1.15,2013-05-30 14:18:00,
2013-05-30 10:24:00,70.0,61.7,30.28,WNW,299,1.0,2.0,75,0.00,,,0.00,Wunderground v.1.15,2013-05-30 14:24:00,
2013-05-30 10:30:00,70.6,61.5,30.28,WNW,299,1.0,2.0,73,0.00,,,0.00,Wunderground v.1.15,2013-05-30 14:30:00,
2013-05-30 10:36:00,70.8,61.7,30.28,WNW,299,2.0,3.0,73,0.00,,,0.00,Wunderground v.1.15,2013-05-30 14:36:00,
2013-05-30 10:42:00,71.2,63.2,30.27,WNW,299,2.0,2.0,76,0.00,,,0.00,Wunderground v.1.15,2013-05-30 14:42:00,
2013-05-30 10:48:00,71.2,62.1,30.27,NW,306,1.0,4.0,73,0.00,,,0.00,Wunderground v.1.15,2013-05-30 14:48:00,
2013-05-30 10:54:00,71.6,62.1,30.27,NW,306,1.0,1.0,72,0.00,,,0.00,Wunderground v.1.15,2013-05-30 14:54:00,
2013-05-30 11:00:00,72.7,63.5,30.27,NW,306,0.0,0.0,73,0.00,,,0.00,Wunderground v.1.15,2013-05-30 15:00:00,
2013-05-30 11:06:00,73.7,62.1,30.27,NW,304,1.0,4.0,67,0.00,,,0.00,Wunderground v.1.15,2013-05-30 15:06:00,
2013-05-30 11:12:00,74.4,63.1,30.27,WNW,302,1.0,1.0,68,0.00,,,0.00,Wunderground v.1.15,2013-05-30 15:12:00,
2013-05-30 11:18:00,74.8,62.7,30.27,SSE,153,0.0,4.0,66,0.00,,,0.00,Wunderground v.1.15,2013-05-30 15:18:00,
2013-05-30 11:24:00,75.1,62.5,30.27,SSE,165,2.0,2.0,65,0.00,,,0.00,Wunderground v.1.15,2013-05-30 15:24:00,
2013-05-30 11:30:00,75.2,62.2,30.26,South,169,3.0,3.0,64,0.00,,,0.00,Wunderground v.1.15,2013-05-30 15:30:00,
2013-05-30 11:36:00,75.5,62.0,30.27,South,173,2.0,3.0,63,0.00,,,0.00,Wunderground v.1.15,2013-05-30 15:36:00,
2013-05-30 11:42:00,75.7,62.7,30.26,SSE,161,3.0,3.0,64,0.00,,,0.00,Wunderground v.1.15,2013-05-30 15:42:00,
2013-05-30 11:48:00,76.6,62.6,30.26,SSE,151,2.0,3.0,62,0.00,,,0.00,Wunderground v.1.15,2013-05-30 15:48:00,
2013-05-30 11:54:00,75.6,62.1,30.26,ESE,119,3.0,7.0,63,0.00,,,0.00,Wunderground v.1.15,2013-05-30 15:54:00,
2013-05-30 12:00:00,75.5,62.5,30.26,ESE,119,4.0,4.0,64,0.00,,,0.00,Wunderground v.1.15,2013-05-30 16:00:00,
2013-05-30 12:06:00,75.3,62.3,30.26,SE,142,4.0,5.0,64,0.00,,,0.00,Wunderground v.1.15,2013-05-30 16:06:00,
2013-05-30 12:12:00,75.1,60.7,30.26,East,96,4.0,5.0,61,0.00,,,0.00,Wunderground v.1.15,2013-05-30 16:12:00,
2013-05-30 12:18:00,74.9,61.0,30.26,SE,142,4.0,5.0,62,0.00,,,0.00,Wunderground v.1.15,2013-05-30 16:18:00,
2013-05-30 12:24:00,75.1,61.2,30.26,SSE,147,5.0,9.0,62,0.00,,,0.00,Wunderground v.1.15,2013-05-30 16:24:00,
2013-05-30 12:30:00,75.2,60.4,30.25,South,184,5.0,5.0,60,0.00,,,0.00,Wunderground v.1.15,2013-05-30 16:30:00,
2013-05-30 12:36:00,75.4,60.5,30.25,SE,133,5.0,5.0,60,0.00,,,0.00,Wunderground v.1.15,2013-05-30 16:36:00,
2013-05-30 12:42:00,75.0,61.1,30.25,ESE,120,4.0,7.0,62,0.00,,,0.00,Wunderground v.1.15,2013-05-30 16:42:00,
2013-05-30 12:48:00,75.6,62.1,30.25,SE,144,4.0,7.0,63,0.00,,,0.00,Wunderground v.1.15,2013-05-30 16:48:00,
2013-05-30 12:54:00,76.0,61.1,30.25,SE,139,5.0,9.0,60,0.00,,,0.00,Wunderground v.1.15,2013-05-30 16:54:00,
2013-05-30 13:00:00,76.6,60.2,30.25,SE,131,4.0,4.0,57,0.00,,,0.00,Wunderground v.1.15,2013-05-30 17:00:00,
2013-05-30 13:06:00,77.2,60.3,30.25,South,178,3.0,4.0,56,0.00,,,0.00,Wunderground v.1.15,2013-05-30 17:06:00,
2013-05-30 13:12:00,76.1,61.2,30.25,South,171,5.0,7.0,60,0.00,,,0.00,Wunderground v.1.15,2013-05-30 17:12:00,
2013-05-30 13:18:00,75.7,61.8,30.24,SSE,150,4.0,9.0,62,0.00,,,0.00,Wunderground v.1.15,2013-05-30 17:18:00,
2013-05-30 13:24:00,75.8,61.4,30.24,SSE,165,4.0,7.0,61,0.00,,,0.00,Wunderground v.1.15,2013-05-30 17:24:00,
2013-05-30 13:30:00,75.6,62.1,30.24,SE,140,5.0,5.0,63,0.00,,,0.00,Wunderground v.1.15,2013-05-30 17:30:00,
2013-05-30 13:36:00,76.3,62.8,30.23,South,170,4.0,6.0,63,0.00,,,0.00,Wunderground v.1.15,2013-05-30 17:36:00,
2013-05-30 13:42:00,75.5,62.0,30.23,SE,133,6.0,10.0,63,0.00,,,0.00,Wunderground v.1.15,2013-05-30 17:42:00,
2013-05-30 13:48:00,75.0,62.0,30.23,SE,141,7.0,10.0,64,0.00,,,0.00,Wunderground v.1.15,2013-05-30 17:48:00,
2013-05-30 13:54:00,76.2,61.3,30.23,SE,135,5.0,6.0,60,0.00,,,0.00,Wunderground v.1.15,2013-05-30 17:54:00,
2013-05-30 14:00:00,76.7,62.2,30.23,SE,139,4.0,10.0,61,0.00,,,0.00,Wunderground v.1.15,2013-05-30 18:00:00,
2013-05-30 14:06:00,76.2,62.7,30.22,SE,126,5.0,10.0,63,0.00,,,0.00,Wunderground v.1.15,2013-05-30 18:06:00,
2013-05-30 14:12:00,75.9,60.1,30.22,SSE,165,6.0,6.0,58,0.00,,,0.00,Wunderground v.1.15,2013-05-30 18:12:00,
2013-05-30 14:18:00,75.8,60.4,30.22,ESE,121,4.0,6.0,59,0.00,,,0.00,Wunderground v.1.15,2013-05-30 18:18:00,
2013-05-30 14:24:00,76.5,60.6,30.22,ESE,111,4.0,8.0,58,0.00,,,0.00,Wunderground v.1.15,2013-05-30 18:24:00,
2013-05-30 14:32:00,77.1,62.1,30.22,ESE,116,3.0,10.0,60,0.00,,,0.00,Wunderground v.1.15,2013-05-30 18:32:00,